Lincoln, IL

4:45 AM CDT on September 26, 2017 (GMT -0500)
Lincoln

Weather History for KAAA - October, 2012

Change the Weather History Date:

Tuesday, October 16, 2012

  Actual Average (KSPI) Record (KSPI)
Temperature  
Mean Temperature 59 °F -  
Max Temperature 74 °F 65 °F 85 °F (1963)
Min Temperature 43 °F 45 °F 30 °F (1970)
Degree Days  
Heating Degree Days 6    
Growing Degree Days 9 (Base 50)    
Moisture  
Dew Point 48 °F    
Average Humidity 68    
Maximum Humidity 91    
Minimum Humidity 44    
Precipitation  
Precipitation 0.00 in - - ()
Sea Level Pressure  
Sea Level Pressure 29.75 in    
Wind  
Wind Speed 8 mph (South)    
Max Wind Speed 24 mph    
Max Gust Speed 29 mph    
Visibility 10 miles    
Events      
Averages and records for this station are not official NWS values.
T = Trace of Precipitation, MM = Missing Value Source: NWS Daily Summary

Daily Weather History Graph

Daily Weather History Graph

Search for Another Location

Airport or City:

Trip Planner

Search our weather history database for the weather conditions in past years. The results will help you decide how hot, cold, wet, or windy it might be!

Date:

Astronomy

Oct. 16, 2012 Rise Set
Actual Time 7:09 AM CDT 6:15 PM CDT
Civil Twilight 6:42 AM CDT 6:42 PM CDT
Nautical Twilight 6:10 AM CDT 7:14 PM CDT
Astronomical Twilight 5:39 AM CDT 7:45 PM CDT
Moon 8:32 AM CDT (10/16) 6:59 PM CDT (10/16)
Length of Visible Light 12h 00m
Length of Day
11h 05m
New Moon, 2% of the Moon is Illuminated
Oct 16
New Moon
Oct 21
First Quarter
Oct 29
Full
Nov 6
Last Quarter
Nov 13
New

Hourly Weather History & Observations

Time (CDT) Temp. Windchill Dew Point Humidity Pressure Visibility Wind Dir Wind Speed Gust Speed Precip Events Conditions
12:15 AM 45.0 °F - 41.7 °F 88% 29.96 in 10.0 mi Calm Calm - N/A   Clear
12:35 AM 43.9 °F - 41.2 °F 90% 29.95 in 10.0 mi Calm Calm - N/A   Clear
12:55 AM 44.2 °F - 41.5 °F 90% 29.95 in 10.0 mi Calm Calm - N/A   Clear
1:15 AM 43.5 °F - 41.0 °F 91% 29.95 in 10.0 mi Calm Calm - N/A   Clear
1:35 AM 43.9 °F - 40.8 °F 89% 29.95 in 10.0 mi Calm Calm - N/A   Clear
1:55 AM 44.1 °F 42.5 °F 41.4 °F 90% 29.95 in 10.0 mi SSE 3.5 mph - N/A   Clear
2:15 AM 44.6 °F - 41.4 °F 88% 29.94 in 10.0 mi Calm Calm - N/A   Clear
2:35 AM 43.9 °F - 41.0 °F 90% 29.94 in 10.0 mi Calm Calm - N/A   Clear
2:55 AM 45.0 °F 42.6 °F 41.9 °F 89% 29.93 in 10.0 mi SSE 4.6 mph - N/A   Clear
3:15 AM 43.7 °F 42.1 °F 40.3 °F 88% 29.92 in 10.0 mi SSE 3.5 mph - N/A   Clear
3:35 AM 44.1 °F 41.5 °F 41.0 °F 89% 29.92 in 10.0 mi SSE 4.6 mph - N/A   Clear
3:55 AM 44.6 °F 43.1 °F 41.0 °F 87% 29.92 in 10.0 mi SSE 3.5 mph - N/A   Clear
4:15 AM 43.7 °F - 40.6 °F 89% 29.91 in 10.0 mi Calm Calm - N/A   Clear
4:35 AM 43.9 °F 41.3 °F 40.8 °F 89% 29.90 in 10.0 mi SSE 4.6 mph - N/A   Clear
4:55 AM 44.6 °F 42.2 °F 41.7 °F 90% 29.89 in 10.0 mi SSE 4.6 mph - N/A   Clear
5:15 AM 45.5 °F 43.2 °F 41.5 °F 86% 29.89 in 10.0 mi SSE 4.6 mph - N/A   Clear
5:35 AM 44.6 °F 43.1 °F 41.2 °F 88% 29.89 in 10.0 mi SSE 3.5 mph - N/A   Clear
5:55 AM 45.5 °F 43.2 °F 41.7 °F 87% 29.88 in 10.0 mi SE 4.6 mph - N/A   Clear
6:15 AM 45.9 °F 42.9 °F 41.7 °F 85% 29.87 in 10.0 mi SSE 5.8 mph - N/A   Clear
6:35 AM 45.7 °F 43.4 °F 41.5 °F 85% 29.87 in 10.0 mi South 4.6 mph - N/A   Clear
6:55 AM 46.4 °F 44.3 °F 41.0 °F 81% 29.86 in 10.0 mi SSE 4.6 mph - N/A   Clear
7:15 AM 46.4 °F 44.3 °F 41.9 °F 84% 29.86 in 10.0 mi SSE 4.6 mph - N/A   Clear
7:35 AM 46.4 °F 44.3 °F 42.8 °F 87% 29.86 in 10.0 mi South 4.6 mph - N/A   Clear
7:55 AM 48.4 °F - 43.3 °F 83% 29.86 in 10.0 mi SSE 8.1 mph - N/A   Clear
8:15 AM 50.9 °F - 44.2 °F 78% 29.86 in 10.0 mi SSE 10.4 mph - N/A   Clear
8:35 AM 52.7 °F - 44.8 °F 74% 29.86 in 10.0 mi SSE 11.5 mph 17.3 mph N/A   Clear
8:55 AM 54.1 °F - 45.9 °F 74% 29.86 in 10.0 mi SSE 12.7 mph - N/A   Clear
9:15 AM 56.1 °F - 46.8 °F 71% 29.85 in 10.0 mi SSE 12.7 mph 18.4 mph N/A   Clear
9:35 AM 58.1 °F - 47.1 °F 67% 29.84 in 10.0 mi SSE 12.7 mph 20.7 mph N/A   Clear
9:55 AM 59.9 °F - 46.9 °F 62% 29.83 in 10.0 mi SSE 12.7 mph 23.0 mph N/A   Clear
10:15 AM 61.2 °F - 47.3 °F 60% 29.83 in 10.0 mi SSE 18.4 mph - N/A   Clear
10:35 AM 62.8 °F - 48.0 °F 59% 29.81 in 10.0 mi South 16.1 mph 24.2 mph N/A   Clear
10:55 AM 64.0 °F - 48.9 °F 58% 29.79 in 10.0 mi SSE 19.6 mph 26.5 mph N/A   Clear
11:15 AM 65.5 °F - 49.5 °F 56% 29.79 in 10.0 mi South 17.3 mph 23.0 mph N/A   Clear
11:35 AM 67.1 °F - 50.4 °F 55% 29.77 in 10.0 mi South 19.6 mph 25.3 mph N/A   Clear
11:55 AM 67.8 °F - 50.7 °F 54% 29.76 in 10.0 mi South 21.9 mph 28.8 mph N/A   Clear
12:15 PM 69.1 °F - 51.6 °F 54% 29.74 in 10.0 mi South 17.3 mph 21.9 mph N/A   Clear
12:35 PM 69.8 °F - 51.8 °F 53% 29.73 in 10.0 mi South 17.3 mph 24.2 mph N/A   Clear
12:55 PM 71.1 °F - 53.1 °F 53% 29.71 in 10.0 mi South 18.4 mph 23.0 mph N/A   Clear
1:15 PM 71.8 °F - 52.9 °F 51% 29.70 in 10.0 mi South 19.6 mph 26.5 mph N/A   Clear
1:35 PM 72.5 °F - 53.1 °F 50% 29.68 in 10.0 mi South 24.2 mph 27.6 mph N/A   Clear
1:55 PM 73.4 °F - 53.1 °F 49% 29.67 in 10.0 mi South 18.4 mph 25.3 mph N/A   Clear
2:15 PM 73.9 °F - 52.5 °F 47% 29.66 in 10.0 mi South 21.9 mph 26.5 mph N/A   Clear
2:35 PM 73.0 °F - 51.6 °F 47% 29.65 in 10.0 mi South 19.6 mph 28.8 mph N/A   Clear
2:55 PM 75.2 °F - 51.8 °F 44% 29.64 in 10.0 mi South 21.9 mph 28.8 mph N/A   Scattered Clouds
3:15 PM 72.7 °F - 52.9 °F 50% 29.63 in 10.0 mi South 20.7 mph 27.6 mph N/A   Clear
3:35 PM 73.8 °F - 52.9 °F 48% 29.63 in 10.0 mi South 18.4 mph 28.8 mph N/A   Clear
3:55 PM 73.4 °F - 53.6 °F 50% 29.62 in 10.0 mi South 17.3 mph - N/A   Clear
4:15 PM 73.6 °F - 53.6 °F 50% 29.61 in 10.0 mi South 19.6 mph 23.0 mph N/A   Scattered Clouds
4:35 PM 73.2 °F - 54.0 °F 51% 29.61 in 10.0 mi South 16.1 mph 24.2 mph N/A   Scattered Clouds
4:55 PM 72.0 °F - 54.7 °F 54% 29.61 in 10.0 mi South 12.7 mph 19.6 mph N/A   Clear
5:15 PM 71.2 °F - 54.9 °F 56% 29.61 in 10.0 mi South 11.5 mph - N/A   Clear
5:35 PM 71.2 °F - 54.9 °F 56% 29.60 in 10.0 mi South 10.4 mph - N/A   Clear
5:55 PM 71.4 °F - 55.0 °F 56% 29.59 in 10.0 mi South 11.5 mph - N/A   Clear
6:15 PM 70.7 °F - 55.0 °F 58% 29.59 in 10.0 mi South 10.4 mph 17.3 mph N/A   Clear
6:35 PM 69.8 °F - 55.2 °F 60% 29.59 in 10.0 mi South 11.5 mph 16.1 mph N/A   Clear
6:55 PM 69.4 °F - 54.9 °F 60% 29.59 in 10.0 mi South 11.5 mph - N/A   Clear
7:15 PM 69.3 °F - 54.5 °F 59% 29.58 in 10.0 mi South 15.0 mph - N/A   Clear
7:35 PM 68.9 °F - 54.1 °F 59% 29.59 in 10.0 mi South 12.7 mph - N/A   Clear
7:55 PM 68.5 °F - 54.0 °F 60% 29.58 in 10.0 mi South 13.8 mph - N/A   Clear
8:15 PM 68.0 °F - 54.5 °F 62% 29.59 in 10.0 mi South 13.8 mph - N/A   Clear
8:35 PM 67.1 °F - 54.7 °F 64% 29.58 in 10.0 mi South 12.7 mph - N/A   Clear
8:55 PM 67.5 °F - 54.7 °F 64% 29.59 in 10.0 mi South 12.7 mph - N/A   Clear
9:15 PM 68.0 °F - 54.5 °F 62% 29.59 in 10.0 mi South 15.0 mph 20.7 mph N/A   Clear
9:35 PM 68.0 °F - 54.0 °F 61% 29.59 in 10.0 mi South 12.7 mph - N/A   Clear
9:55 PM 67.5 °F - 53.6 °F 61% 29.60 in 10.0 mi South 12.7 mph 17.3 mph N/A   Clear
10:15 PM 67.1 °F - 53.4 °F 61% 29.60 in 10.0 mi South 12.7 mph 18.4 mph N/A   Clear
10:35 PM 67.1 °F - 52.9 °F 60% 29.61 in 10.0 mi South 12.7 mph - N/A   Clear
10:55 PM 66.2 °F - 52.2 °F 61% 29.61 in 10.0 mi South 11.5 mph - N/A   Clear
11:15 PM 66.2 °F - 51.8 °F 60% 29.61 in 10.0 mi South 12.7 mph 18.4 mph N/A   Clear
11:35 PM 65.1 °F - 51.8 °F 62% 29.61 in 10.0 mi South 9.2 mph - N/A   Clear
11:55 PM 64.4 °F - 51.4 °F 63% 29.61 in 10.0 mi South 9.2 mph - N/A   Clear